sat.trackr.live / text

‹ back to catalog

UNKNOWN

NORAD 87771

UNKNOWN UNKNOWN UNKNOWN

§ Identity

Operator
Country
Launch date
Launch site
Launch vehicle
Mass (kg)
RCS (m²)

External: N2YO · Heavens-Above

§ Orbital elements

Epoch: 2026-05-22T06:38:13.627968Z

Period
109.13 min
Inclination
100.7361°
Eccentricity
0.0119722
Mean motion
13.19561041 rev/d
Perigee alt
1,095.8 km
Apogee alt
1,277.0 km
Semi-major
7,564.5 km
B*
2.2088e-4
RAAN
346.8865°
Arg perigee
358.8476°
Mean anomaly
1.2346°
Rev number
55,626

§ Raw data

UNKNOWN1 87771U          26142.27654662  .00000044  00000+0  22088-3 0  99932 87771 100.7361 346.8865 0119722 358.8476   1.2346 13.19561041556264

JSON: /api/v1/satellites/87771 · /tle

For live sub-satellite position, see the globe view (requires WebGL).

§ Visibility from observer

Set your observer location to see the next 7 days of passes ≥ 10°. The values pass through the URL so the page stays shareable.

No JS? Fill the form by hand. The geolocation button needs JavaScript.